{"data":{"norad_id":68984,"intl_designator":"2026-100E","name":"IRIDE-MS2-HEO-12","alt_names":[],"object_type":"PAYLOAD","status":"ACTIVE","operator":null,"country":"IT","launch_date":"2026-05-03","launch_site_code":"AFWTR","launch_vehicle":null,"mission":null,"orbit_class":"UNKNOWN","rcs_meters":null,"size_class":null,"mass_kg":null,"dimensions":null,"purposes":[],"wikipedia_slug":null,"has_3d_model":false,"image_url":null,"decayed_at":null,"tle_current":{"epoch":"2026-05-25T03:24:50.825952Z","epoch_age_seconds":62485,"freshness":"FRESH","line1":"1 68984U 26100E   26145.14225493  .00001330  00000+0  13981-3 0  9993","line2":"2 68984  97.7366  43.0036 0003056 214.3280 145.7742 14.91098390  3260","mean_motion":14.9109839,"eccentricity":0.0003056,"inclination_deg":97.7366,"raan_deg":43.0036,"arg_perigee_deg":214.328,"mean_anomaly_deg":145.7742,"bstar":0.00013981,"rev_number":326,"period_min":96.573104072629,"perigee_km":592.37854068512,"apogee_km":596.64022215344,"semimajor_km":6972.6463814193,"source":"CELESTRAK","updated_at":"2026-05-25T13:38:08.807660Z"}}}